AO-07 1 07530U 74089B 18179.45010994 -.00000047 00000-0 -14999-4 0 9990 2 07530 101.6875 146.6018 0011858 315.5987 212.7278 12.53633122996003 UO-11 1 14781U 84021B 18179.53804958 .00000095 00000-0 17900-4 0 9999 2 14781 097.6481 215.2700 0009682 052.6359 307.5735 14.83014020825121 LO-19 1 20442U 90005G 18179.38513723 -.00000006 00000-0 13923-4 0 9993 2 20442 098.6105 117.8083 0012820 114.7110 245.5410 14.32898893485495 HUBBLE 1 20580U 90037B 18179.03445399 .00000539 00000-0 22054-4 0 9991 2 20580 028.4704 043.3993 0002534 255.9721 220.7489 15.09058489347025 MET-2/21 1 22782U 93055A 18179.38549803 .00000035 00000-0 18273-4 0 9992 2 22782 082.5501 085.0479 0023633 094.9383 043.6557 13.83812686253455 AO-27 1 22825U 93061C 18179.48552508 -.00000012 00000-0 13199-4 0 9992 2 22825 098.8631 155.8060 0007676 320.1852 039.8766 14.30033406290912 IO-26 1 22826U 93061D 18179.42977630 -.00000018 00000-0 10911-4 0 9999 2 22826 098.8571 155.7855 0008032 308.5632 051.4829 14.30365011291360 FO-29 1 24278U 96046B 18179.54393156 -.00000009 00000-0 23730-4 0 9999 2 24278 098.5168 016.7348 0351412 081.4929 282.5866 13.53084237079526 NOAA-15 1 25338U 98030A 18179.55943568 .00000080 00000-0 52443-4 0 9992 2 25338 098.7684 195.9994 0010306 187.9168 172.1851 14.25861833046388 GO-32 1 25397U 98043D 18179.41720687 -.00000019 00000-0 10875-4 0 9997 2 25397 98.6503 119.6701 0001594 34.7821 325.3462 14.23647542 37326 ISS 1 25544U 98067A 18179.59232422 .00002298 00000-0 42157-4 0 9999 2 25544 051.6416 321.8553 0003889 237.5906 182.0395 15.53983334120298 NO-44 1 26931U 01043C 18179.54144863 -.00000012 00000-0 27269-4 0 9994 2 26931 067.0496 200.1120 0007985 273.0449 086.9738 14.30509294874107 SO-50 1 27607U 02058C 18179.12454431 .00000021 00000-0 23809-4 0 9996 2 27607 064.5559 056.6033 0066421 326.0178 033.6678 14.75460609834445 CO-55 1 27844U 03031E 18179.49690512 .00000047 00000-0 41161-4 0 9992 2 27844 098.6859 187.9862 0009431 346.5281 013.5643 14.22120081777766 CO-57 1 27848U 03031J 18179.45938988 .00000042 00000-0 39158-4 0 9992 2 27848 098.6945 188.3511 0009555 357.2332 002.8791 14.21723421777632 RS-22 1 27939U 03042A 18179.56887573 .00000085 00000-0 23705-4 0 9998 2 27939 097.9921 318.4097 0014320 110.8526 310.4048 14.66696363788344 NOAA-18 1 28654U 05018A 18179.58270497 .00000004 00000-0 27261-4 0 9993 2 28654 099.1438 215.2674 0015493 095.7545 264.5393 14.12379246675295 CO-58 1 28895U 05043F 18179.35189478 .00000122 00000-0 32166-4 0 9992 2 28895 097.9104 330.3557 0017628 038.3592 321.8861 14.63557569675271 Falconsat-3 1 30776U 07006E 18179.46059930 .00002137 00000-0 63768-4 0 9995 2 30776 035.4342 194.9781 0002441 148.2967 211.7906 15.34589971626050 CO-65 1 32785U 08021C 18179.47855219 .00000259 00000-0 33661-4 0 9992 2 32785 097.5464 191.1176 0013233 008.3848 351.7588 14.88137658550784 AAUSAT2 1 32788U 08021F 18179.53830518 .00000616 00000-0 62241-4 0 9990 2 32788 097.5206 205.5711 0010618 316.4437 043.5945 14.94372986551772 DO-64 1 32789U 08021G 18179.60578455 .00001056 00000-0 76344-4 0 9996 2 32789 097.5113 234.1264 0010682 256.5395 103.4642 15.06120779553406 CO-66 1 32791U 08021J 18179.48165985 .00000346 00000-0 40740-4 0 9997 2 32791 097.5352 196.5050 0012978 348.1476 011.9435 14.90575014551113 RS-30 1 32953U 08025A 18179.54856364 .00000019 00000-0 68884-4 0 9992 2 32953 082.5025 005.6121 0019059 182.5166 177.5821 12.43083777458183 PRISM 1 33493U 09002B 18179.26939848 .00000552 00000-0 54450-4 0 9992 2 33493 98.1291 81.7859 0014248 282.4699 77.4926 14.96243029512004 NOAA-19 1 33591U 09005A 18179.54641379 .00000039 00000-0 46536-4 0 9990 2 33591 099.1423 157.7988 0013023 297.3623 062.6222 14.12288879483518 TISAT-1 1 36799U 10035E 18179.32491470 .00000577 00000-0 64608-4 0 9996 2 36799 98.1080 315.8363 0012717 165.9044 194.2530 14.90820982431812 JUGNU 1 37839U 11058B 18179.57507453 .00000303 00000-0 19816-4 0 9992 2 37839 019.9623 328.1990 0019023 012.5904 051.0693 14.12622174346872 SRMSAT 1 37841U 11058D 18179.60509333 .00000298 00000-0 18598-4 0 9997 2 37841 019.9736 017.4521 0011788 256.0923 141.6586 14.10608923346404 AO-71 1 37854U 11061E 18179.11322937 .00001663 00000-0 93731-4 0 9993 2 37854 101.7024 249.6738 0163485 041.1592 320.1817 15.05515734363024 HRBE 1 37855U 11061F 18179.57987059 .00001687 00000-0 93310-4 0 9995 2 37855 101.7154 247.9401 0176481 048.6268 312.9968 15.04501940362892 ALMASAT-1 1 38078U 12006B 18179.56196137 .00021693 38209-5 19328-3 0 9993 2 38078 069.4318 185.2634 0234989 089.1570 048.0824 15.41407935342401 HORYU-2 1 38340U 12025D 18179.53443285 .00000201 00000-0 37616-4 0 9998 2 38340 098.3651 201.6445 0011812 168.3010 191.8475 14.75567892318377 RS-40 1 38735U 12041C 18179.54745337 .00000023 00000-0 99259-4 0 9991 2 38735 082.4772 089.5382 0015979 292.2375 067.7009 12.42576474268416 BEESAT-3 1 39134U 13015E 18179.19344500 .00001626 00000-0 86200-4 0 9997 2 39134 064.8643 091.3060 0011749 215.5836 144.4509 15.19213995286192 BEESAT-2 1 39136U 13015G 18179.27300525 .00001204 00000-0 71889-4 0 9996 2 39136 064.8700 107.3648 0021860 235.1998 124.7071 15.16183085285883 ZACUBE-1 1 39417U 13066B 18179.53071367 .00000217 00000-0 33636-4 0 9993 2 39417 097.5860 207.5639 0060581 117.3829 243.3566 14.80946869248473 TRITON-1 1 39427U 13066M 18179.41308633 .00000196 00000-0 39396-4 0 9995 2 39427 097.6416 174.5972 0112934 222.8407 136.3958 14.67679372246032 GOMX-1 1 39430U 13066Q 18179.55005859 .00000183 00000-0 42612-4 0 9999 2 39430 097.6981 155.6056 0150143 294.9912 063.5758 14.59091309244622 LO-74 1 39440U 13066AA 18179.46445230 .00000227 00000-0 38482-4 0 9990 2 39440 097.6005 194.0315 0081098 157.8814 202.5928 14.75684384246383 AO-73 1 39444U 13066AE 18179.52068108 .00000310 00000-0 44482-4 0 9996 2 39444 097.5869 209.0940 0059759 112.8621 247.8918 14.81729666246742 SPROUT 1 39770U 14029E 18179.29385782 .00000749 00000-0 90042-4 0 9991 2 39770 97.8766 280.2468 0009251 163.9880 196.1632 14.86875385222013 DUCHIFAT-1 1 40021U 14033M 18179.33820019 .00000426 00000-0 49703-4 0 9999 2 40021 097.9160 098.0777 0013860 136.6072 223.6239 14.90325664218617 NANOSATCBR1 1 40024U 14033Q 18179.31762352 .00000423 00000-0 50238-4 0 9997 2 40024 097.9095 096.2783 0013088 138.6173 221.6038 14.89586331218017 EO-79 1 40025U 14033R 18179.30478082 .00000318 00000-0 40013-4 0 9994 2 40025 097.9053 094.6810 0013238 142.9668 217.2465 14.88728636217939 DTUSAT-2 1 40030U 14033W 18179.27270303 .00000261 00000-0 34214-4 0 9995 2 40030 097.8999 093.3304 0012823 138.1705 222.0494 14.88335690217878 EO-80 1 40032U 14033Y 18179.33110104 .00000265 00000-0 34721-4 0 9993 2 40032 097.9006 093.3914 0012754 138.5585 221.6601 14.88273047217861 ANTELSAT 1 40034U 14033AA 18179.60935283 .00000212 00000-0 39044-4 0 9993 2 40034 097.8097 055.8283 0059233 159.9048 200.4512 14.73934950215830 VELOX-1 1 40057U 14034E 18179.34815347 .00000321 00000-0 52700-4 0 9993 2 40057 098.2047 290.5884 0009638 295.9606 064.0615 14.77441014215291 DAURIA DX 1 1 40071U 14037C 18179.49822825 .00000115 00000-0 22273-4 0 9990 2 40071 098.3769 311.3645 0007274 288.6725 071.3697 14.81167618214673 UKUBE-1 1 40074U 14037F 18179.34575550 .00000310 00000-0 44560-4 0 9997 2 40074 098.3886 317.1671 0003616 287.6486 072.4342 14.83814880214950 HODOYOSHI-1 1 40299U 14070B 18179.56424862 .00000786 00000-0 36455-4 0 9997 2 40299 097.3775 261.1356 0012078 204.3562 264.0899 15.22925680202213 CHUBUSAT-1 1 40300U 14070C 18179.26277579 .00000920 00000-0 43668-4 0 9992 2 40300 97.3630 256.7208 0019005 221.2150 188.8830 15.21599029201962 QSAT-EOS 1 40301U 14070D 18179.47751833 .00002126 00000-0 87879-4 0 9998 2 40301 097.3590 258.2707 0025547 209.6281 246.5373 15.24805165202141 FIREBIRD FU3 1 40377U 15003B 18179.26575443 .00001594 00000-0 68803-4 0 9990 2 40377 099.0862 083.2110 0130740 193.3937 166.3809 15.17275132187993 FIREBIRD FU4 1 40378U 15003C 18179.32048917 .00001603 00000-0 69100-4 0 9991 2 40378 99.0863 83.3348 0130970 193.0975 166.6842 15.17284496188010 GRIFEX 1 40379U 15003D 18179.50866521 .00001042 00000-0 49785-4 0 9995 2 40379 099.0889 079.6482 0137744 205.3458 154.0970 15.14379483187802 NO-84 1 40654U 15025D 18179.46543756 .00016949 00000-0 26309-3 0 03387 2 40654 054.9922 345.3624 0159964 137.4118 223.9580 15.40887494057582 NO-83 1 40655U 15025E 18179.29925588 .00036153 00000-0 36490-3 0 03938 2 40655 054.9776 287.9211 0106712 170.6737 189.6315 15.58101284058010 DEORBITSAIL 1 40719U 15032E 18179.63773819 .00000400 00000-0 64746-4 0 9997 2 40719 097.9440 072.9677 0017078 016.1249 344.0501 14.76453614159867 NUDT-PHONESAT 1 40900U 15049B 18179.55241253 .00002322 00000-0 10645-3 0 9993 2 40900 097.4397 187.6727 0013235 357.8388 002.2788 15.21387626153645 XW-2A 1 40903U 15049E 18179.54393516 .00002170 00000-0 55388-4 0 9990 2 40903 097.3826 214.5119 0013865 357.0725 003.0437 15.40560209155558 XW-2C 1 40906U 15049H 18179.54502451 .00000722 00000-0 41876-4 0 9991 2 40906 097.4594 182.8280 0014891 357.4277 002.6876 15.15216965153218 XW-2D 1 40907U 15049J 18179.56237279 .00000773 00000-0 44387-4 0 9993 2 40907 097.4568 182.5406 0014188 355.4650 004.6452 15.15369953153228 LILACSAT-2 1 40908U 15049K 18179.58278971 .00000396 00000-0 25707-4 0 9996 2 40908 097.4681 181.9047 0015868 356.4607 003.6510 15.13527485153091 XW-2F 1 40910U 15049M 18179.56797068 .00001166 00000-0 63039-4 0 9996 2 40910 097.4568 183.8817 0014750 350.6796 009.4162 15.16574776153307 XW-2B 1 40911U 15049N 18179.58030194 .00000777 00000-0 44661-4 0 9996 2 40911 097.4603 183.1003 0014106 356.0371 004.0748 15.15313371153124 DCBB 1 40912U 15049P 18179.55327557 .00001666 00000-0 83165-4 0 9996 2 40912 097.4492 186.7186 0014693 338.3925 120.1979 15.18799242153394 TW-1C 1 40926U 15051B 18179.51254091 .00011158 00000-0 20571-3 0 9990 2 40926 097.1825 221.8024 0008284 226.4426 239.6682 15.49265023155062 TW-1A 1 40928U 15051D 18179.45925083 .00003398 00000-0 90610-4 0 9990 2 40928 097.1845 213.2247 0009998 283.3865 184.0105 15.38783651154512 IO-86 1 40931U 15052B 18179.13567035 .00000675 00000-0 49730-5 0 9992 2 40931 006.0002 071.9624 0012952 166.2169 193.8306 14.76578571148628 LQSat 1 40958U 15057A 18179.44150223 .00000005 00000-0 85058-5 0 9997 2 40958 097.9397 252.3353 0017070 303.4506 056.5069 14.73035849146513 AO-85 1 40967U 15058D 18179.44929513 .00000338 00000-0 52929-4 0 03717 2 40967 064.7759 157.0812 0208290 310.2610 048.0432 14.75733729055317 ATHENOXAT-1 1 41168U 15077C 18179.54674771 .00002293 00000-0 88884-4 0 9993 2 41168 014.9923 297.1655 0011672 196.3843 151.5553 15.12818298140090 ChubuSat-2 1 41338U 16012B 18179.55987483 .00000334 00000-0 19327-4 0 9990 2 41338 031.0024 241.3936 0013783 186.1354 173.9114 14.99991250129545 ChubuSat-3 1 41339U 16012C 18179.50567003 .00000338 00000-0 19588-4 0 9991 2 41339 031.0112 240.3180 0013689 193.1041 166.9253 15.00178304129524 Horyu-4 1 41340U 16012D 18179.49200578 .00000502 00000-0 31613-4 0 9998 2 41340 031.0043 235.0148 0013981 205.6630 154.3313 15.01002082129597 OUFTI-1 1 41458U 16025C 18179.21113520 .00002510 00000-0 13266-3 0 9996 2 41458 098.1350 242.6504 0171309 110.6425 251.3279 15.04716387119094 e-st@r-II 1 41459U 16025D 18179.21998629 .00002375 00000-0 12618-3 0 9997 2 41459 098.1365 242.4956 0172623 111.3354 250.6406 15.04448062119084 AAUSAT4 1 41460U 16025E 18179.25449645 .00004883 00000-0 25265-3 0 9990 2 41460 98.1303 243.0478 0162874 107.1799 254.7355 15.05908658119156 LO-87 1 41557U 16033B 18179.30505305 .00001735 00000-0 65979-4 0 9998 2 41557 97.4378 263.5001 0015984 121.0201 239.2611 15.28041720115857 NuSat2 1 41558U 16033C 18179.30464275 .00001729 00000-0 65445-4 0 9990 2 41558 97.4394 263.6135 0014792 114.4988 245.7795 15.28230948115845 Lapan A3 1 41603U 16040E 18179.60156108 .00000160 00000-0 10694-4 0 9999 2 41603 097.4105 240.9175 0012911 194.3967 269.8078 15.19574619111813 Swayam 1 41607U 16040J 18179.16506469 .00001981 00000-0 88962-4 0 9998 2 41607 97.4124 241.9999 0013360 193.0368 167.0524 15.22274506111779 Pratham 1 41783U 16059A 18179.21762524 .00000071 00000-0 23071-4 0 9994 2 41783 098.1168 240.5990 0034801 062.3317 298.1410 14.62929329093571 AlSat 1N 1 41789U 16059G 18179.37070529 .00000063 00000-0 21038-4 0 9996 2 41789 098.1179 241.9942 0029411 054.0094 306.3830 14.64162120093659 ScatSat 1 41790U 16059H 18179.20939509 .00000016 00000-0 15269-4 0 9999 2 41790 098.2586 226.7996 0019452 059.8869 300.4251 14.50860166092786 TY-1 1 41844U 16066D 18179.51444403 .00002075 00000-0 90198-4 0 9996 2 41844 097.4046 186.3275 0015646 004.0138 147.2781 15.23299686090609 Pegasus-1 1 41846U 16066F 18179.53492526 .00000264 00000-0 51262-4 0 9996 2 41846 098.7529 208.2270 0367623 213.1190 144.6491 14.37351225085533 CAS-2T 1 41847U 16066G 18179.52363858 .00000091 00000-0 24772-4 0 9995 2 41847 098.7489 208.6640 0365655 210.6527 147.2837 14.37901675085952 TO-89 1 41932U 98067KU 18179.45888299 .00035064 00000-0 21241-3 0 9999 2 41932 051.6313 282.7188 0003829 272.7075 087.3487 15.77205759082542 AOBA-V3LOX3 1 41935U 98067KX 18179.50783855 .00044278 00000-0 21818-3 0 9997 2 41935 051.6351 277.7354 0003931 286.7010 073.3560 15.81660664082715 EO-88 1 42017U 17008BX 18179.12366361 .00002129 00000-0 89576-4 0 9997 2 42017 097.4474 244.1160 0006019 357.8900 002.2311 15.24486962075735 HAVELSAT 1 42700U 98067LH 18179.53073706 .00026389 00000-0 20218-3 0 9994 2 42700 051.6357 296.7376 0004349 298.5286 061.5274 15.71911559063808 SOMP2 1 42701U 98067LJ 18179.52599030 .00024684 00000-0 19795-3 0 9991 2 42701 051.6361 298.2118 0004285 295.2308 064.8245 15.70862235063778 PHOENIX 1 42706U 98067LP 18179.50484615 .00019146 00000-0 16241-3 0 9996 2 42706 051.6363 298.8310 0001168 255.1855 104.9013 15.69690612063689 X-CubeSat 1 42707U 98067LQ 18179.57103136 .00027973 00000-0 20867-3 0 9996 2 42707 051.6323 296.1857 0001582 275.9284 084.1534 15.72518238063717 qbee 1 42708U 98067LR 18179.52440918 .00026770 00000-0 20771-3 0 9992 2 42708 051.6364 297.4418 0001585 274.1312 085.9505 15.71609080063651 ZA-AeroSat 1 42713U 98067LU 18179.54318515 .00018575 00000-0 16649-3 0 9990 2 42713 051.6355 301.3259 0001907 227.3746 132.7090 15.68364916063319 LINK 1 42714U 98067LV 18179.45035967 .00081561 00000-0 38858-3 0 9999 2 42714 051.6249 289.2375 0003214 298.6819 061.3860 15.82139865063579 UPSat 1 42716U 98067LX 18179.52846302 .00041430 00000-0 25174-3 0 9990 2 42716 051.6330 292.1554 0003922 303.7710 056.2916 15.77054668063563 SpaceCube 1 42717U 98067LY 18179.55124828 .00026858 00000-0 20930-3 0 9998 2 42717 051.6335 297.5948 0003265 297.4548 062.6117 15.71500324062734 Hoopoe 1 42718U 98067LZ 18179.50045148 .00033345 00000-0 22866-3 0 9990 2 42718 051.6352 295.0064 0003476 300.2969 059.7686 15.74390235062762 Challenger 1 42721U 98067MA 18179.54940123 .00137375 18069-4 43683-3 0 9991 2 42721 051.6272 283.0985 0008225 317.0280 043.0082 15.90870289062626 NJUST-1 1 42722U 98067MB 18179.54705739 .00016909 00000-0 15824-3 0 9991 2 42722 051.6364 302.8757 0005227 276.7510 083.2891 15.67365189062369 UNSW-EC0 1 42723U 98067MC 18179.49563825 .00035026 00000-0 23145-3 0 9990 2 42723 051.6383 295.0115 0005074 286.7528 073.2915 15.75214352062441 DUTHsat 1 42724U 98067MD 18179.46875218 .00124361 00000-0 45033-3 0 9991 2 42724 051.6313 285.6529 0007130 314.0475 045.9942 15.87664683062502 LO-90 1 42725U 98067ME 18179.57054826 .00022971 00000-0 19141-3 0 9993 2 42725 051.6366 300.0209 0004443 281.1759 078.8739 15.69983986062320 nSIGHT1 1 42726U 98067MF 18179.57652369 .00007152 00000-0 87159-4 0 9999 2 42726 051.6396 309.8908 0004808 276.3024 083.7422 15.61711099062187 SNUSAT 1B 1 42727U 98067MG 18179.51881505 .00022571 00000-0 18848-3 0 9990 2 42727 051.6345 300.3702 0005681 245.9946 114.0457 15.69937713062261 QBITO 1 42728U 98067MH 18179.57417734 .00027314 00000-0 20997-3 0 9994 2 42728 051.6386 297.8434 0002864 288.9113 071.1574 15.71816167062144 Aalto-2 1 42729U 98067MJ 18179.55134012 .00028701 00000-0 21778-3 0 9997 2 42729 051.6352 297.6266 0002930 288.7672 071.3008 15.72096235062153 SUSat 1 42730U 98067MK 18179.55445539 .00024906 00000-0 20277-3 0 9994 2 42730 051.6356 299.1467 0002867 285.7619 074.3062 15.70497802062130 i-INSPIRE II 1 42731U 98067ML 18179.48434193 .00040983 00000-0 26310-3 0 9998 2 42731 051.6358 294.1041 0004635 249.5508 110.4995 15.75803927062238 PolyITAN-2-SAU 1 42732U 98067MM 18179.57799599 .00029569 00000-0 22223-3 0 9999 2 42732 051.6348 297.0219 0004871 238.6991 121.3531 15.72298825062200 ExAlta-1 1 42734U 98067MP 18179.52523649 .00042628 00000-0 26395-3 0 9992 2 42734 051.6294 293.5904 0006173 274.1394 085.8900 15.76599211062192 Aoxiang-1 1 42735U 98067MQ 18179.57371520 .00017648 00000-0 16273-3 0 9995 2 42735 051.6357 302.2791 0005652 274.4291 085.6060 15.67694619063504 BeEagleSat 1 42736U 98067MR 18179.49215625 .00020946 00000-0 18051-3 0 9991 2 42736 051.6354 300.9704 0005495 275.4353 084.6017 15.69224746062205 CAS-4B 1 42759U 17034B 18179.57482372 .00000274 00000-0 30447-4 0 9991 2 42759 043.0208 020.7489 0008751 184.4162 206.9617 15.09312632057176 CAS-4A 1 42761U 17034D 18179.62555334 .00000419 00000-0 39313-4 0 9991 2 42761 043.0207 020.2361 0009156 185.7127 224.2296 15.09389931057179 UCLSat 1 42765U 17036A 18179.12370551 .00001698 00000-0 77554-4 0 9997 2 42765 097.4000 238.7961 0012976 044.8109 315.4172 15.21886101056965 NIUSat 1 42766U 17036B 18179.38788182 .00001239 00000-0 59794-4 0 9996 2 42766 097.4001 238.3077 0016762 030.6616 329.5595 15.20422487056231 LituanicaSAT 2 1 42768U 17036D 18179.57898387 .00002346 00000-0 10724-3 0 9997 2 42768 097.4015 238.8388 0016497 032.6857 327.5396 15.21429014056299 Aalto 1 1 42775U 17036L 18179.61362663 .00000898 00000-0 43796-4 0 9999 2 42775 097.3994 238.7470 0015007 030.9705 329.2412 15.20773375056235 URSA MAIOR 1 42776U 17036M 18179.59961056 .00001015 00000-0 48986-4 0 9996 2 42776 097.4001 238.7865 0014854 031.2689 328.9427 15.20853578056234 Max Valier Sat 1 42778U 17036P 18179.23077296 .00001307 00000-0 61346-4 0 9992 2 42778 097.4026 238.7603 0013620 038.0595 322.1600 15.21339531056186 Pegasus 1 42784U 17036V 18179.22827385 .00001484 00000-0 68505-4 0 9990 2 42784 097.4004 238.8225 0013474 044.2267 316.0044 15.21694237056194 NUDATSat 1 42787U 17036Y 18179.60249277 .00001933 00000-0 86827-4 0 9999 2 42787 097.4010 239.4026 0012958 043.2951 316.9301 15.22284252056104 SUCHAI 1 1 42788U 17036Z 18179.11782319 .00001895 00000-0 85960-4 0 9999 2 42788 097.4006 238.8166 0013100 044.6560 315.5729 15.21968420056259 SKCUBE 1 42789U 17036AA 18179.11751709 .00001729 00000-0 78785-4 0 9992 2 42789 097.4003 238.8100 0012933 044.7025 315.5251 15.21928310056170 VZLUSAT 1 1 42790U 17036AB 18179.59164397 .00001885 00000-0 84733-4 0 9990 2 42790 097.4007 239.3996 0012544 043.8687 316.3543 15.22304853056250 VENTA 1 1 42791U 17036AC 18179.23017452 .00001537 00000-0 70311-4 0 9992 2 42791 097.4002 238.9614 0012569 045.1510 315.0745 15.21977856056185 Robusta 1B 1 42792U 17036AD 18179.61110382 .00001561 00000-0 71144-4 0 9993 2 42792 097.4002 239.3603 0012504 044.3179 315.9056 15.22072105056267 D-SAT 1 42794U 17036AF 18179.58750481 .00000117 00000-0 15943-4 0 9992 2 42794 097.5905 233.8144 0125639 244.0070 114.8164 14.90878388055428 BIRD-J 1 42820U 98067MU 18179.50521996 .00021463 00000-0 19177-3 0 9993 2 42820 051.6354 303.3172 0002455 217.6505 142.4321 15.68332919055658 BIRD-G 1 42821U 98067MV 18179.49738188 .00019816 00000-0 18155-3 0 9999 2 42821 051.6355 304.0176 0002473 218.9032 141.1787 15.67772176055622 BIRD-M 1 42822U 98067MW 18179.60458513 .00020496 00000-0 18555-3 0 9994 2 42822 051.6357 303.2374 0002475 223.7257 136.3544 15.68042733055640 BIRD-B 1 42823U 98067MX 18179.53616631 .00020575 00000-0 18545-3 0 9991 2 42823 051.6361 303.5483 0004838 238.7025 121.3498 15.68140422055639 BIRD-N 1 42824U 98067MY 18179.49811697 .00020314 00000-0 18480-3 0 9995 2 42824 051.6368 304.0615 0004738 238.5853 121.4681 15.67921202055622 TechnoSat 1 42829U 17042E 18179.30428385 .00000086 00000-0 14169-4 0 9997 2 42829 97.5960 81.2391 0014764 156.8055 203.3833 14.90830626 51983 TOMSK-TPU 120 1 42910U 98067MZ 18179.56703948 .00014935 00000-0 15624-3 0 9997 2 42910 051.6357 308.2289 0005670 254.5875 105.4494 15.64671948049169 TANYUSHA 1 1 42911U 98067NA 18179.54299848 .00016023 00000-0 16031-3 0 9998 2 42911 051.6363 307.3552 0005284 250.6825 109.3600 15.65738624049150 TANYUSHA 2 1 42912U 98067NB 18179.54960471 .00015662 00000-0 16056-3 0 9991 2 42912 051.6377 308.1259 0004757 261.8255 098.2201 15.65147055049160 SFERA 2 1 42913U 98067NC 18179.55694051 .00039856 00000-0 28079-3 0 9990 2 42913 051.6330 299.8585 0004439 283.7148 076.3357 15.73667353049277 TNS 0-2 1 42914U 98067ND 18179.54997128 .00014949 00000-0 15760-3 0 9990 2 42914 051.6369 308.9072 0004757 255.5439 104.5029 15.64477594049126 QIKCOM-1 1 42983U 98067NF 18179.57318111 .00003420 00000-0 54479-4 0 9991 2 42983 051.6406 319.6177 0003839 236.7373 123.3251 15.56339390037997 AO-91 1 43017U 17073E 18179.45040404 .00000336 00000-0 32427-4 0 9994 2 43017 097.7077 110.1132 0258443 234.7953 122.8815 14.78095857032772 EcAMSat 1 43019U 98067NG 18179.57833748 .00004851 00000-0 72091-4 0 9999 2 43019 051.6408 318.9047 0004795 211.6383 148.4321 15.57206427120324 PICSAT 1 43132U 18004X 18179.60999053 .00001422 00000-0 64073-4 0 9996 2 43132 097.5332 242.3201 0011483 063.6758 296.5657 15.22679454025451 AO-92 1 43137U 18004AC 18179.59799123 .00001191 00000-0 54092-4 0 9998 2 43137 097.5328 242.3303 0011036 065.5539 294.6847 15.22741071025451 TianYi 2 1 43155U 18008A 18179.55784396 .00001373 00000-0 86691-4 0 9996 2 43155 097.5236 253.8396 0019513 104.7040 002.2213 15.10585206024204 Zhou Enlai 1 43156U 18008B 18179.55011733 .00001603 00000-0 10217-3 0 9991 2 43156 097.5285 253.7930 0016614 101.3980 006.3223 15.10048634024190 TianYi 6 1 43158U 18008D 18179.17303938 .00000574 00000-0 39390-4 0 9992 2 43158 97.5238 253.2734 0015411 99.0061 319.1004 15.09743467 24112 S-Net G 1 43186U 18014G 18179.32200520 -.00000270 00000-0 -18631-4 0 9990 2 43186 97.7248 87.6554 0012367 111.0717 249.1828 14.96463288 21988 S-Net H 1 43187U 18014H 18179.32192159 -.00000259 00000-0 -17703-4 0 9995 2 43187 97.7246 87.6522 0012360 111.0220 249.2325 14.96464288 21988 S-Net J 1 43188U 18014J 18179.32183837 -.00000266 00000-0 -18270-4 0 9997 2 43188 97.7249 87.6568 0012358 111.0839 249.1705 14.96465072 21988 S-Net K 1 43189U 18014K 18179.32194897 -.00000275 00000-0 -19113-4 0 9993 2 43189 097.7246 087.6514 0012367 111.0200 249.2346 14.96463788020533 FMN 1 1 43192U 18015A 18179.60246100 .00002695 00000-0 11756-3 0 9994 2 43192 097.3575 308.2568 0018646 102.0083 258.3254 15.22860353022253 Shaonian Xing 1 43199U 18015H 18179.44663911 .00001980 00000-0 84959-4 0 9998 2 43199 097.3347 307.8815 0019267 114.4923 245.8327 15.23721146022256 1KUNS-PF 1 43466U 98067NP 18179.54270467 .00010643 00000-0 15730-3 0 9997 2 43466 051.6405 321.6593 0000464 143.4951 216.6073 15.55908011007463 UBAKUSAT 1 43467U 98067NQ 18179.54334516 .00008041 00000-0 12122-3 0 9995 2 43467 051.6408 321.6646 0002737 167.7923 192.3135 15.55765759007479 Irazu 1 43468U 98067NR 18179.53938157 .00012489 00000-0 18208-3 0 9998 2 43468 051.6404 321.6372 0000365 132.9225 227.1797 15.56097694107453 /EX
